User: anonymous   Login
Location: ??????
(41.3164°N, 22.6615°E)
Time: 17:57:11
(UTC+00:00)
Language:

Cosmos 1892 Rocket - Orbit

View from above orbital plane
View from above orbital plane
View from above satellite
View from above satellite

Ground track
Ground track

The orbit data is extracted from the following two-line orbital elements,

1 18422U 87088B   22024.50411355  .00000144  00000-0  14733-4 0  9993
2 18422  82.5101  40.2587 0018169 299.7449 173.2158 14.83120909851155
Epoch (UTC): 24 January 2022 12:05:55
Eccentricity: 0.0018169
inclination: 82.5101°
perigee height: 607 km
apogee height: 632 km
right ascension of ascending node: 40.2587°
argument of perigee: 299.7449°
revolutions per day: 14.83120909
mean anomaly at epoch: 173.2158°
orbit number at epoch: 85115

The dashed part of the orbit path shows where the satellite is in the earth's shadow,  

DLR